Retour au catalogue

EXPRESS AM-33

ActifCommunicationsGEO
NORAD 32478·PAYLOAD·🇷🇺 Russia

Lancé Jan 28, 2008 depuis Baikonur Cosmodrome

Loading…

TLE

FraisSource: Space-Track

Époque: Sep 14, 2026, 06:57 UTC

1 32478U 08003A   26257.29024437 -.00000006  00000-0  00000-0 0  9995
2 32478   5.0232  74.1725 0014249 171.6870 213.3205  1.00244501 54635

Suivez EXPRESS AM-33 en temps réel avec AllMySat

Download on the App Store